Time,TemperatureF,DewpointF,PressureIn,WindDirection,WindDirectionDegrees,WindSpeedMPH,WindSpeedGustMPH,Humidity,HourlyPrecipIn,Conditions,Clouds,dailyrainin,SoftwareType,DateUTC
2013-01-16 00:00:00,30.4,24.4,30.08,NNE,21,3.0,3.0,78,0.00,,,0.00,Wunderground v.1.15,2013-01-16 05:00:00,
2013-01-16 00:10:00,30.4,24.1,30.08,NE,34,3.0,3.0,77,0.00,,,0.00,Wunderground v.1.15,2013-01-16 05:10:00,
2013-01-16 00:15:00,30.5,24.1,30.07,ENE,72,3.0,3.0,77,0.00,,,0.00,Wunderground v.1.15,2013-01-16 05:15:00,
2013-01-16 00:20:00,30.5,24.1,30.06,NNE,23,2.0,2.0,77,0.00,,,0.00,Wunderground v.1.15,2013-01-16 05:20:00,
2013-01-16 00:25:00,30.5,24.1,30.06,NNE,20,2.0,3.0,77,0.00,,,0.00,Wunderground v.1.15,2013-01-16 05:25:00,
2013-01-16 00:35:00,30.5,24.1,30.06,NNE,27,3.0,3.0,77,0.00,,,0.00,Wunderground v.1.15,2013-01-16 05:35:00,
2013-01-16 00:40:00,30.5,24.1,30.05,NNE,30,2.0,3.0,77,0.00,,,0.00,Wunderground v.1.15,2013-01-16 05:40:00,
2013-01-16 00:45:00,30.5,23.8,30.05,NNE,32,2.0,3.0,76,0.00,,,0.00,Wunderground v.1.15,2013-01-16 05:45:00,
2013-01-16 00:50:00,30.5,23.8,30.05,NE,52,3.0,3.0,76,0.00,,,0.00,Wunderground v.1.15,2013-01-16 05:50:00,
2013-01-16 01:00:00,30.6,23.9,30.04,NNE,25,1.0,1.0,76,0.00,,,0.00,Wunderground v.1.15,2013-01-16 06:00:00,
2013-01-16 01:10:00,30.6,23.9,30.04,ENE,63,1.0,1.0,76,0.00,,,0.00,Wunderground v.1.15,2013-01-16 06:10:00,
2013-01-16 01:15:00,30.6,23.9,30.05,East,92,0.0,1.0,76,0.00,,,0.00,Wunderground v.1.15,2013-01-16 06:15:00,
2013-01-16 01:20:00,30.6,24.2,30.04,East,91,0.0,0.0,77,0.00,,,0.00,Wunderground v.1.15,2013-01-16 06:20:00,
2013-01-16 01:25:00,30.6,23.9,30.04,ESE,113,1.0,-999.0,76,0.00,,,0.00,Wunderground v.1.15,2013-01-16 06:25:00,
2013-01-16 01:30:00,30.6,23.9,30.04,ESE,113,0.0,-999.0,76,0.00,,,0.00,Wunderground v.1.15,2013-01-16 06:30:00,
2013-01-16 01:35:00,30.6,23.9,30.03,ESE,113,0.0,-999.0,76,0.00,,,0.00,Wunderground v.1.15,2013-01-16 06:35:00,
2013-01-16 01:40:00,30.6,23.9,30.03,East,90,0.0,-999.0,76,0.00,,,0.00,Wunderground v.1.15,2013-01-16 06:40:00,
2013-01-16 01:45:00,30.6,23.9,30.03,ESE,113,1.0,-999.0,76,0.00,,,0.00,Wunderground v.1.15,2013-01-16 06:45:00,
2013-01-16 01:50:00,30.6,23.9,30.03,SE,135,0.0,-999.0,76,0.00,,,0.00,Wunderground v.1.15,2013-01-16 06:50:00,
2013-01-16 01:55:00,30.6,23.9,30.02,WSW,248,0.0,-999.0,76,0.00,,,0.00,Wunderground v.1.15,2013-01-16 06:55:00,
2013-01-16 02:00:00,30.6,23.9,30.02,NW,315,1.0,-999.0,76,0.00,,,0.00,Wunderground v.1.15,2013-01-16 07:00:00,
2013-01-16 02:05:00,30.7,24.0,30.03,NE,45,1.0,-999.0,76,0.00,,,0.00,Wunderground v.1.15,2013-01-16 07:05:00,
2013-01-16 02:10:00,30.7,24.3,30.03,ENE,68,0.0,-999.0,77,0.00,,,0.00,Wunderground v.1.15,2013-01-16 07:10:00,
2013-01-16 02:15:00,30.8,24.4,30.02,ENE,68,0.0,-999.0,77,0.00,,,0.00,Wunderground v.1.15,2013-01-16 07:15:00,
2013-01-16 02:20:00,30.8,24.1,30.03,ENE,68,0.0,-999.0,76,0.00,,,0.00,Wunderground v.1.15,2013-01-16 07:20:00,
2013-01-16 02:25:00,30.8,24.4,30.02,NNE,23,1.0,-999.0,77,0.00,,,0.00,Wunderground v.1.15,2013-01-16 07:25:00,
2013-01-16 02:30:00,30.9,24.5,30.01,NNE,23,2.0,-999.0,77,0.00,,,0.00,Wunderground v.1.15,2013-01-16 07:30:00,
2013-01-16 02:35:00,30.9,24.5,30.01,NNE,23,2.0,-999.0,77,0.00,,,0.00,Wunderground v.1.15,2013-01-16 07:35:00,
2013-01-16 02:40:00,30.9,24.5,30.02,North,0,2.0,-999.0,77,0.00,,,0.00,Wunderground v.1.15,2013-01-16 07:40:00,
2013-01-16 02:45:00,30.9,24.5,30.02,North,0,0.0,-999.0,77,0.00,,,0.00,Wunderground v.1.15,2013-01-16 07:45:00,
2013-01-16 02:50:00,30.9,24.5,30.02,NNE,23,1.0,-999.0,77,0.00,,,0.00,Wunderground v.1.15,2013-01-16 07:50:00,
2013-01-16 02:55:00,31.0,24.6,30.03,North,0,2.0,-999.0,77,0.00,,,0.00,Wunderground v.1.15,2013-01-16 07:55:00,
2013-01-16 03:00:00,31.0,24.6,30.03,North,0,1.0,-999.0,77,0.00,,,0.00,Wunderground v.1.15,2013-01-16 08:00:00,
2013-01-16 03:05:00,31.0,24.6,30.02,NW,315,0.0,-999.0,77,0.00,,,0.00,Wunderground v.1.15,2013-01-16 08:05:00,
2013-01-16 03:10:00,30.9,24.8,30.02,N/A,-737280,0.0,-999.0,78,0.00,,,0.00,Wunderground v.1.15,2013-01-16 08:10:00,
2013-01-16 03:15:00,30.9,24.8,30.03,NW,315,1.0,-999.0,78,0.00,,,0.00,Wunderground v.1.15,2013-01-16 08:15:00,
2013-01-16 03:20:00,30.9,24.8,30.02,NW,315,0.0,-999.0,78,0.00,,,0.00,Wunderground v.1.15,2013-01-16 08:20:00,
2013-01-16 03:25:00,30.9,24.8,30.01,N/A,-737280,0.0,-999.0,78,0.00,,,0.00,Wunderground v.1.15,2013-01-16 08:25:00,
2013-01-16 03:30:00,30.9,24.8,30.02,NW,315,0.0,-999.0,78,0.00,,,0.00,Wunderground v.1.15,2013-01-16 08:30:00,
2013-01-16 03:35:00,30.9,24.8,30.01,N/A,-737280,0.0,-999.0,78,0.00,,,0.00,Wunderground v.1.15,2013-01-16 08:35:00,
2013-01-16 03:40:00,30.9,24.8,30.01,NW,315,1.0,-999.0,78,0.00,,,0.00,Wunderground v.1.15,2013-01-16 08:40:00,
2013-01-16 03:45:00,30.9,24.8,30.00,NNW,338,1.0,-999.0,78,0.00,,,0.00,Wunderground v.1.15,2013-01-16 08:45:00,
2013-01-16 03:50:00,30.8,25.1,30.01,NNW,338,0.0,-999.0,79,0.00,,,0.00,Wunderground v.1.15,2013-01-16 08:50:00,
2013-01-16 03:55:00,30.8,25.1,30.00,NNW,338,0.0,-999.0,79,0.00,,,0.00,Wunderground v.1.15,2013-01-16 08:55:00,
2013-01-16 04:00:00,30.7,25.0,30.01,North,0,1.0,-999.0,79,0.00,,,0.00,Wunderground v.1.15,2013-01-16 09:00:00,
2013-01-16 04:05:00,30.7,25.0,30.00,NNW,338,0.0,-999.0,79,0.00,,,0.00,Wunderground v.1.15,2013-01-16 09:05:00,
2013-01-16 04:10:00,30.6,24.9,30.00,NNW,338,0.0,-999.0,79,0.00,,,0.00,Wunderground v.1.15,2013-01-16 09:10:00,
2013-01-16 04:15:00,30.7,25.3,30.01,NNW,338,0.0,-999.0,80,0.00,,,0.00,Wunderground v.1.15,2013-01-16 09:15:00,
2013-01-16 04:20:00,30.7,25.3,29.99,ESE,113,0.0,-999.0,80,0.00,,,0.00,Wunderground v.1.15,2013-01-16 09:20:00,
2013-01-16 04:25:00,30.7,25.3,29.98,ESE,113,1.0,-999.0,80,0.00,,,0.00,Wunderground v.1.15,2013-01-16 09:25:00,
2013-01-16 04:30:00,30.7,25.6,29.99,ESE,113,1.0,-999.0,81,0.00,,,0.00,Wunderground v.1.15,2013-01-16 09:30:00,
2013-01-16 04:35:00,30.7,25.3,29.98,NNW,338,0.0,-999.0,80,0.00,,,0.00,Wunderground v.1.15,2013-01-16 09:35:00,
2013-01-16 04:40:00,30.7,25.3,29.97,N/A,-737280,0.0,-999.0,80,0.00,,,0.00,Wunderground v.1.15,2013-01-16 09:40:00,
2013-01-16 04:45:00,30.7,25.3,29.97,NNW,338,0.0,-999.0,80,0.00,,,0.00,Wunderground v.1.15,2013-01-16 09:45:00,
2013-01-16 04:50:00,30.7,25.6,29.97,NNW,338,1.0,-999.0,81,0.00,,,0.00,Wunderground v.1.15,2013-01-16 09:50:00,
2013-01-16 04:55:00,30.7,25.3,29.96,NNW,338,0.0,-999.0,80,0.00,,,0.00,Wunderground v.1.15,2013-01-16 09:55:00,
2013-01-16 05:00:00,30.7,25.6,29.95,N/A,-737280,0.0,-999.0,81,0.00,,,0.00,Wunderground v.1.15,2013-01-16 10:00:00,
2013-01-16 05:05:00,30.7,25.6,29.96,N/A,-737280,0.0,-999.0,81,0.00,,,0.00,Wunderground v.1.15,2013-01-16 10:05:00,
2013-01-16 05:10:00,30.7,25.3,29.96,N/A,-737280,0.0,-999.0,80,0.00,,,0.00,Wunderground v.1.15,2013-01-16 10:10:00,
2013-01-16 05:15:00,30.8,25.4,29.95,N/A,-737280,0.0,-999.0,80,0.00,,,0.00,Wunderground v.1.15,2013-01-16 10:15:00,
2013-01-16 05:20:00,30.8,25.4,29.95,N/A,-737280,0.0,-999.0,80,0.00,,,0.00,Wunderground v.1.15,2013-01-16 10:20:00,
2013-01-16 05:25:00,30.9,25.8,29.95,NNW,345,0.0,3.0,81,0.00,,,0.00,Wunderground v.1.15,2013-01-16 10:25:00,
2013-01-16 05:30:00,30.9,25.5,29.95,NNW,348,0.0,3.0,80,0.00,,,0.00,Wunderground v.1.15,2013-01-16 10:30:00,
2013-01-16 05:35:00,30.9,25.5,29.95,NNW,348,0.0,3.0,80,0.00,,,0.00,Wunderground v.1.15,2013-01-16 10:35:00,
2013-01-16 05:40:00,30.9,25.5,29.95,NNW,348,0.0,3.0,80,0.00,,,0.00,Wunderground v.1.15,2013-01-16 10:40:00,
2013-01-16 05:45:00,30.9,25.5,29.96,NNW,348,0.0,3.0,80,0.00,,,0.00,Wunderground v.1.15,2013-01-16 10:45:00,
2013-01-16 05:50:00,31.0,25.6,29.95,N/A,-737280,0.0,-999.0,80,0.00,,,0.00,Wunderground v.1.15,2013-01-16 10:50:00,
2013-01-16 05:55:00,31.0,25.9,29.97,NNW,348,0.0,3.0,81,0.00,,,0.00,Wunderground v.1.15,2013-01-16 10:55:00,
2013-01-16 06:00:00,31.0,25.9,29.96,West,263,0.0,0.0,81,0.00,,,0.00,Wunderground v.1.15,2013-01-16 11:00:00,
2013-01-16 06:05:00,31.0,25.9,29.95,NNE,23,0.0,-999.0,81,0.00,,,0.00,Wunderground v.1.15,2013-01-16 11:05:00,
2013-01-16 06:10:00,30.9,25.8,29.97,North,5,1.0,1.0,81,0.00,,,0.00,Wunderground v.1.15,2013-01-16 11:10:00,
2013-01-16 06:15:00,30.9,25.8,29.97,North,359,1.0,1.0,81,0.00,,,0.00,Wunderground v.1.15,2013-01-16 11:15:00,
2013-01-16 06:20:00,30.9,25.8,29.96,NNE,22,0.0,2.0,81,0.00,,,0.00,Wunderground v.1.15,2013-01-16 11:20:00,
2013-01-16 06:25:00,30.8,25.7,29.95,NNE,22,1.0,2.0,81,0.00,,,0.00,Wunderground v.1.15,2013-01-16 11:25:00,
2013-01-16 06:30:00,30.8,25.7,29.94,NNE,23,1.0,-999.0,81,0.00,,,0.00,Wunderground v.1.15,2013-01-16 11:30:00,
2013-01-16 06:35:00,30.8,25.7,29.95,NNE,27,1.0,3.0,81,0.00,,,0.00,Wunderground v.1.15,2013-01-16 11:35:00,
2013-01-16 06:40:00,30.8,25.7,29.94,NNE,18,2.0,2.0,81,0.00,,,0.00,Wunderground v.1.15,2013-01-16 11:40:00,
2013-01-16 06:45:00,30.8,25.7,29.95,NNE,23,2.0,-999.0,81,0.00,,,0.00,Wunderground v.1.15,2013-01-16 11:45:00,
2013-01-16 06:50:00,30.7,25.6,29.96,NNW,340,2.0,2.0,81,0.00,,,0.00,Wunderground v.1.15,2013-01-16 11:50:00,
2013-01-16 06:55:00,30.8,25.7,29.95,NNE,27,2.0,2.0,81,0.00,,,0.00,Wunderground v.1.15,2013-01-16 11:55:00,
2013-01-16 07:00:00,30.7,25.9,29.95,NNE,23,2.0,5.0,82,0.00,,,0.00,Wunderground v.1.15,2013-01-16 12:00:00,
2013-01-16 07:05:00,30.7,25.9,29.95,NNE,23,3.0,-999.0,82,0.00,,,0.00,Wunderground v.1.15,2013-01-16 12:05:00,
2013-01-16 07:10:00,30.7,25.6,29.95,North,2,3.0,3.0,81,0.00,,,0.00,Wunderground v.1.15,2013-01-16 12:10:00,
2013-01-16 07:15:00,30.7,25.9,29.94,NE,34,2.0,3.0,82,0.00,,,0.00,Wunderground v.1.15,2013-01-16 12:15:00,
2013-01-16 07:20:00,30.6,25.8,29.94,NNE,26,2.0,2.0,82,0.00,,,0.00,Wunderground v.1.15,2013-01-16 12:20:00,
2013-01-16 07:25:00,30.6,25.8,29.94,NNE,23,2.0,-999.0,82,0.00,,,0.00,Wunderground v.1.15,2013-01-16 12:25:00,
2013-01-16 07:30:00,30.6,25.8,29.94,North,0,1.0,-999.0,82,0.00,,,0.00,Wunderground v.1.15,2013-01-16 12:30:00,
2013-01-16 07:35:00,30.6,25.8,29.95,North,0,1.0,-999.0,82,0.00,,,0.00,Wunderground v.1.15,2013-01-16 12:35:00,
2013-01-16 07:40:00,30.6,25.8,29.96,North,0,0.0,-999.0,82,0.00,,,0.00,Wunderground v.1.15,2013-01-16 12:40:00,
2013-01-16 07:45:00,30.6,25.8,29.95,N/A,-737280,0.0,-999.0,82,0.00,,,0.00,Wunderground v.1.15,2013-01-16 12:45:00,
2013-01-16 07:50:00,30.6,25.8,29.95,North,0,0.0,-999.0,82,0.00,,,0.00,Wunderground v.1.15,2013-01-16 12:50:00,
2013-01-16 07:55:00,30.6,25.8,29.95,North,0,0.0,-999.0,82,0.00,,,0.00,Wunderground v.1.15,2013-01-16 12:55:00,
2013-01-16 08:00:00,30.5,26.0,29.95,North,0,1.0,-999.0,83,0.00,,,0.00,Wunderground v.1.15,2013-01-16 13:00:00,
2013-01-16 08:05:00,30.4,26.1,29.96,North,0,1.0,-999.0,84,0.00,,,0.00,Wunderground v.1.15,2013-01-16 13:05:00,
2013-01-16 08:10:00,30.3,26.0,29.95,N/A,-737280,0.0,-999.0,84,0.00,,,0.00,Wunderground v.1.15,2013-01-16 13:10:00,
2013-01-16 08:15:00,30.3,26.0,29.94,N/A,-737280,0.0,-999.0,84,0.00,,,0.00,Wunderground v.1.15,2013-01-16 13:15:00,
2013-01-16 08:20:00,30.2,26.2,29.95,N/A,-737280,0.0,-999.0,85,0.00,,,0.00,Wunderground v.1.15,2013-01-16 13:20:00,
2013-01-16 08:25:00,30.2,26.2,29.96,SSW,203,0.0,-999.0,85,0.00,,,0.00,Wunderground v.1.15,2013-01-16 13:25:00,
2013-01-16 08:30:00,30.2,26.5,29.96,SW,225,0.0,-999.0,86,0.00,,,0.00,Wunderground v.1.15,2013-01-16 13:30:00,
2013-01-16 08:35:00,30.1,26.7,29.96,SSW,203,1.0,-999.0,87,0.00,,,0.00,Wunderground v.1.15,2013-01-16 13:35:00,
2013-01-16 08:40:00,30.0,26.9,29.96,South,180,2.0,-999.0,88,0.00,,,0.00,Wunderground v.1.15,2013-01-16 13:40:00,
2013-01-16 08:45:00,30.0,26.9,29.95,SSE,158,2.0,-999.0,88,0.00,,,0.00,Wunderground v.1.15,2013-01-16 13:45:00,
2013-01-16 08:50:00,30.0,27.2,29.94,South,180,1.0,-999.0,89,0.00,,,0.00,Wunderground v.1.15,2013-01-16 13:50:00,
2013-01-16 08:55:00,29.9,27.1,29.95,SSW,203,1.0,-999.0,89,0.00,,,0.00,Wunderground v.1.15,2013-01-16 13:55:00,
2013-01-16 09:00:00,29.8,27.0,29.96,SSW,203,1.0,-999.0,89,0.00,,,0.00,Wunderground v.1.15,2013-01-16 14:00:00,
2013-01-16 09:05:00,29.8,27.2,29.97,SSW,203,2.0,-999.0,90,0.00,,,0.00,Wunderground v.1.15,2013-01-16 14:05:00,
2013-01-16 09:10:00,29.8,27.2,29.96,SSW,203,2.0,-999.0,90,0.00,,,0.00,Wunderground v.1.15,2013-01-16 14:10:00,
2013-01-16 09:15:00,29.8,27.5,29.97,SSW,203,3.0,-999.0,91,0.00,,,0.00,Wunderground v.1.15,2013-01-16 14:15:00,
2013-01-16 09:20:00,29.8,27.5,29.97,SSW,203,3.0,-999.0,91,0.00,,,0.00,Wunderground v.1.15,2013-01-16 14:20:00,
2013-01-16 09:25:00,29.9,27.6,29.95,SSW,203,2.0,-999.0,91,0.00,,,0.00,Wunderground v.1.15,2013-01-16 14:25:00,
2013-01-16 09:30:00,29.9,27.6,29.95,SSE,158,2.0,-999.0,91,0.00,,,0.00,Wunderground v.1.15,2013-01-16 14:30:00,
2013-01-16 09:35:00,29.9,27.6,29.95,SSW,203,2.0,-999.0,91,0.00,,,0.00,Wunderground v.1.15,2013-01-16 14:35:00,
2013-01-16 09:40:00,30.0,27.7,29.94,WSW,248,1.0,-999.0,91,0.00,,,0.00,Wunderground v.1.15,2013-01-16 14:40:00,
2013-01-16 09:45:00,30.0,28.0,29.95,SSW,203,2.0,-999.0,92,0.00,,,0.00,Wunderground v.1.15,2013-01-16 14:45:00,
2013-01-16 09:50:00,30.1,28.1,29.94,SSW,203,3.0,-999.0,92,0.00,,,0.00,Wunderground v.1.15,2013-01-16 14:50:00,
2013-01-16 09:55:00,30.1,28.1,29.94,SSW,203,3.0,-999.0,92,0.00,,,0.00,Wunderground v.1.15,2013-01-16 14:55:00,
2013-01-16 10:00:00,30.2,28.2,29.93,SSW,203,3.0,-999.0,92,0.00,,,0.00,Wunderground v.1.15,2013-01-16 15:00:00,
2013-01-16 10:05:00,30.3,28.3,29.93,SSW,203,3.0,-999.0,92,0.00,,,0.00,Wunderground v.1.15,2013-01-16 15:05:00,
2013-01-16 10:10:00,30.4,28.4,29.95,SW,225,4.0,-999.0,92,0.00,,,0.00,Wunderground v.1.15,2013-01-16 15:10:00,
2013-01-16 10:15:00,30.5,28.5,29.95,SSW,203,4.0,-999.0,92,0.00,,,0.00,Wunderground v.1.15,2013-01-16 15:15:00,
2013-01-16 10:20:00,30.5,28.5,29.95,SSW,203,4.0,-999.0,92,0.00,,,0.00,Wunderground v.1.15,2013-01-16 15:20:00,
2013-01-16 10:25:00,30.6,28.8,29.95,SSW,203,4.0,-999.0,93,0.00,,,0.00,Wunderground v.1.15,2013-01-16 15:25:00,
2013-01-16 10:30:00,30.6,28.8,29.95,SSW,203,4.0,-999.0,93,0.00,,,0.00,Wunderground v.1.15,2013-01-16 15:30:00,
2013-01-16 10:35:00,30.6,28.8,29.94,SSW,203,4.0,-999.0,93,0.00,,,0.00,Wunderground v.1.15,2013-01-16 15:35:00,
2013-01-16 10:40:00,30.7,28.9,29.94,SSW,203,5.0,-999.0,93,0.00,,,0.00,Wunderground v.1.15,2013-01-16 15:40:00,
2013-01-16 10:45:00,30.8,29.0,29.94,SSW,203,6.0,-999.0,93,0.00,,,0.00,Wunderground v.1.15,2013-01-16 15:45:00,
2013-01-16 10:50:00,30.9,29.1,29.94,SSW,203,5.0,-999.0,93,0.00,,,0.00,Wunderground v.1.15,2013-01-16 15:50:00,
2013-01-16 10:55:00,30.9,29.1,29.95,SSW,203,7.0,-999.0,93,0.00,,,0.00,Wunderground v.1.15,2013-01-16 15:55:00,
2013-01-16 11:00:00,31.0,29.2,29.95,SSW,203,6.0,-999.0,93,0.00,,,0.00,Wunderground v.1.15,2013-01-16 16:00:00,
2013-01-16 11:05:00,31.0,29.2,29.94,SW,225,4.0,-999.0,93,0.00,,,0.00,Wunderground v.1.15,2013-01-16 16:05:00,
2013-01-16 11:10:00,31.0,29.2,29.95,SSW,203,6.0,-999.0,93,0.00,,,0.00,Wunderground v.1.15,2013-01-16 16:10:00,
2013-01-16 11:15:00,31.1,29.3,29.96,SSW,203,5.0,-999.0,93,0.00,,,0.00,Wunderground v.1.15,2013-01-16 16:15:00,
2013-01-16 11:20:00,31.2,29.4,29.95,SSW,203,5.0,-999.0,93,0.00,,,0.00,Wunderground v.1.15,2013-01-16 16:20:00,
2013-01-16 11:25:00,31.4,29.6,29.94,SSW,203,5.0,-999.0,93,0.00,,,0.00,Wunderground v.1.15,2013-01-16 16:25:00,
2013-01-16 11:30:00,31.5,29.7,29.95,SSW,203,5.0,-999.0,93,0.00,,,0.00,Wunderground v.1.15,2013-01-16 16:30:00,
2013-01-16 11:35:00,31.6,29.8,29.95,SSW,203,4.0,-999.0,93,0.00,,,0.00,Wunderground v.1.15,2013-01-16 16:35:00,
2013-01-16 11:40:00,31.7,29.9,29.94,SW,225,4.0,-999.0,93,0.00,,,0.00,Wunderground v.1.15,2013-01-16 16:40:00,
2013-01-16 11:45:00,31.8,29.7,29.94,SW,225,5.0,-999.0,92,0.00,,,0.00,Wunderground v.1.15,2013-01-16 16:45:00,
2013-01-16 11:50:00,31.8,29.7,29.93,SSW,203,6.0,-999.0,92,0.00,,,0.00,Wunderground v.1.15,2013-01-16 16:50:00,
2013-01-16 12:00:00,31.9,29.8,29.92,SSW,203,5.0,-999.0,92,0.00,,,0.00,Wunderground v.1.15,2013-01-16 17:00:00,
2013-01-16 12:10:00,32.2,29.6,29.92,SW,218,5.0,5.0,90,0.00,,,0.00,Wunderground v.1.15,2013-01-16 17:10:00,
2013-01-16 12:15:00,32.3,29.7,29.92,SW,221,4.0,5.0,90,0.00,,,0.00,Wunderground v.1.15,2013-01-16 17:15:00,
2013-01-16 12:20:00,32.5,29.6,29.92,SW,214,4.0,5.0,89,0.00,,,0.00,Wunderground v.1.15,2013-01-16 17:20:00,
2013-01-16 12:25:00,32.6,29.4,29.93,SSW,204,5.0,8.0,88,0.00,,,0.00,Wunderground v.1.15,2013-01-16 17:25:00,
2013-01-16 12:30:00,32.6,29.4,29.92,SSW,193,5.0,5.0,88,0.00,,,0.00,Wunderground v.1.15,2013-01-16 17:30:00,
2013-01-16 12:40:00,32.7,29.3,29.92,SW,222,5.0,6.0,87,0.00,,,0.00,Wunderground v.1.15,2013-01-16 17:40:00,
2013-01-16 12:45:00,32.9,29.2,29.92,SSW,200,5.0,6.0,86,0.00,,,0.00,Wunderground v.1.15,2013-01-16 17:45:00,
2013-01-16 12:50:00,32.9,28.9,29.92,SW,222,5.0,7.0,85,0.00,,,0.00,Wunderground v.1.15,2013-01-16 17:50:00,
2013-01-16 12:55:00,33.1,29.1,29.91,SSW,197,4.0,7.0,85,0.00,,,0.00,Wunderground v.1.15,2013-01-16 17:55:00,
2013-01-16 13:00:00,33.3,29.0,29.90,SSW,210,5.0,5.0,84,0.00,,,0.00,Wunderground v.1.15,2013-01-16 18:00:00,
2013-01-16 13:10:00,33.6,29.0,29.91,SW,214,6.0,6.0,83,0.00,,,0.00,Wunderground v.1.15,2013-01-16 18:10:00,
2013-01-16 13:20:00,33.9,28.7,29.90,SSW,203,4.0,6.0,81,0.00,,,0.00,Wunderground v.1.15,2013-01-16 18:20:00,
2013-01-16 13:25:00,34.0,28.8,29.90,SSW,203,5.0,6.0,81,0.00,,,0.00,Wunderground v.1.15,2013-01-16 18:25:00,
2013-01-16 13:30:00,34.1,28.6,29.90,SW,228,6.0,6.0,80,0.00,,,0.00,Wunderground v.1.15,2013-01-16 18:30:00,
2013-01-16 13:35:00,34.3,29.1,29.90,SSW,211,5.0,6.0,81,0.00,,,0.00,Wunderground v.1.15,2013-01-16 18:35:00,
2013-01-16 13:40:00,34.4,29.5,29.90,SSW,206,5.0,5.0,82,0.00,,,0.00,Wunderground v.1.15,2013-01-16 18:40:00,
2013-01-16 13:45:00,34.4,29.5,29.89,SSW,196,5.0,5.0,82,0.00,,,0.00,Wunderground v.1.15,2013-01-16 18:45:00,
2013-01-16 13:55:00,34.5,29.3,29.89,South,191,6.0,6.0,81,0.00,,,0.00,Wunderground v.1.15,2013-01-16 18:55:00,
2013-01-16 14:00:00,34.7,29.5,29.89,SSW,197,5.0,5.0,81,0.00,,,0.00,Wunderground v.1.15,2013-01-16 19:00:00,
2013-01-16 14:05:00,34.7,29.2,29.89,SSW,203,4.0,-999.0,80,0.00,,,0.00,Wunderground v.1.15,2013-01-16 19:05:00,
2013-01-16 14:10:00,34.9,29.0,29.90,West,270,3.0,-999.0,79,0.00,,,0.00,Wunderground v.1.15,2013-01-16 19:10:00,
2013-01-16 14:15:00,35.1,29.2,29.90,SSW,203,3.0,-999.0,79,0.00,,,0.00,Wunderground v.1.15,2013-01-16 19:15:00,
2013-01-16 14:20:00,35.3,29.1,29.90,SW,225,3.0,-999.0,78,0.00,,,0.00,Wunderground v.1.15,2013-01-16 19:20:00,
2013-01-16 14:25:00,35.5,28.4,29.90,SW,225,2.0,-999.0,75,0.00,,,0.00,Wunderground v.1.15,2013-01-16 19:25:00,
2013-01-16 14:30:00,35.6,28.1,29.90,SW,225,2.0,-999.0,74,0.00,,,0.00,Wunderground v.1.15,2013-01-16 19:30:00,
2013-01-16 14:35:00,35.8,28.0,29.90,West,270,3.0,-999.0,73,0.00,,,0.00,Wunderground v.1.15,2013-01-16 19:35:00,
2013-01-16 14:40:00,35.9,27.7,29.91,West,270,2.0,-999.0,72,0.00,,,0.00,Wunderground v.1.15,2013-01-16 19:40:00,
2013-01-16 14:45:00,36.0,27.8,29.90,West,270,2.0,-999.0,72,0.00,,,0.00,Wunderground v.1.15,2013-01-16 19:45:00,
2013-01-16 14:50:00,36.0,27.8,29.90,SW,225,3.0,-999.0,72,0.00,,,0.00,Wunderground v.1.15,2013-01-16 19:50:00,
2013-01-16 14:55:00,36.1,27.9,29.90,SW,225,2.0,-999.0,72,0.00,,,0.00,Wunderground v.1.15,2013-01-16 19:55:00,
2013-01-16 15:00:00,36.1,27.6,29.91,SW,225,4.0,-999.0,71,0.00,,,0.00,Wunderground v.1.15,2013-01-16 20:00:00,
2013-01-16 15:05:00,36.1,27.9,29.91,SW,225,3.0,-999.0,72,0.00,,,0.00,Wunderground v.1.15,2013-01-16 20:05:00,
2013-01-16 15:10:00,36.2,28.4,29.91,SW,225,4.0,-999.0,73,0.00,,,0.00,Wunderground v.1.15,2013-01-16 20:10:00,
2013-01-16 15:15:00,36.2,27.7,29.90,SSW,203,4.0,-999.0,71,0.00,,,0.00,Wunderground v.1.15,2013-01-16 20:15:00,
2013-01-16 15:20:00,36.2,28.0,29.91,SW,225,4.0,-999.0,72,0.00,,,0.00,Wunderground v.1.15,2013-01-16 20:20:00,
2013-01-16 15:25:00,36.2,28.4,29.91,SSW,203,5.0,-999.0,73,0.00,,,0.00,Wunderground v.1.15,2013-01-16 20:25:00,
2013-01-16 15:30:00,36.1,28.3,29.92,SW,225,6.0,-999.0,73,0.00,,,0.00,Wunderground v.1.15,2013-01-16 20:30:00,
2013-01-16 15:35:00,36.1,28.3,29.92,SSW,203,5.0,-999.0,73,0.00,,,0.00,Wunderground v.1.15,2013-01-16 20:35:00,
2013-01-16 15:40:00,36.0,28.2,29.91,SSW,203,6.0,-999.0,73,0.00,,,0.00,Wunderground v.1.15,2013-01-16 20:40:00,
2013-01-16 15:45:00,36.0,27.8,29.92,SW,225,5.0,-999.0,72,0.00,,,0.00,Wunderground v.1.15,2013-01-16 20:45:00,
2013-01-16 15:50:00,35.9,28.1,29.92,SSW,203,6.0,-999.0,73,0.00,,,0.00,Wunderground v.1.15,2013-01-16 20:50:00,
2013-01-16 15:55:00,35.9,28.1,29.92,SSW,203,5.0,-999.0,73,0.00,,,0.00,Wunderground v.1.15,2013-01-16 20:55:00,
2013-01-16 16:00:00,35.9,28.1,29.92,SSW,203,6.0,-999.0,73,0.00,,,0.00,Wunderground v.1.15,2013-01-16 21:00:00,
2013-01-16 16:05:00,35.7,27.6,29.93,SW,217,6.0,8.0,72,0.00,,,0.00,Wunderground v.1.15,2013-01-16 21:05:00,
2013-01-16 16:10:00,35.7,27.6,29.92,South,188,6.0,8.0,72,0.00,,,0.00,Wunderground v.1.15,2013-01-16 21:10:00,
2013-01-16 16:15:00,35.6,27.5,29.92,SSW,203,6.0,8.0,72,0.00,,,0.00,Wunderground v.1.15,2013-01-16 21:15:00,
2013-01-16 16:20:00,35.5,27.7,29.92,SSW,194,7.0,7.0,73,0.00,,,0.00,Wunderground v.1.15,2013-01-16 21:20:00,
2013-01-16 16:25:00,35.4,27.9,29.93,SW,214,6.0,8.0,74,0.00,,,0.00,Wunderground v.1.15,2013-01-16 21:25:00,
2013-01-16 16:30:00,35.3,28.2,29.93,SSW,203,4.0,-999.0,75,0.00,,,0.00,Wunderground v.1.15,2013-01-16 21:30:00,
2013-01-16 16:35:00,35.1,28.3,29.93,SSW,203,5.0,8.0,76,0.00,,,0.00,Wunderground v.1.15,2013-01-16 21:35:00,
2013-01-16 16:40:00,35.1,28.3,29.93,SSW,203,6.0,-999.0,76,0.00,,,0.00,Wunderground v.1.15,2013-01-16 21:40:00,
2013-01-16 16:45:00,34.9,28.1,29.93,SW,221,6.0,8.0,76,0.00,,,0.00,Wunderground v.1.15,2013-01-16 21:45:00,
2013-01-16 16:50:00,34.7,27.9,29.93,SSW,203,6.0,8.0,76,0.00,,,0.00,Wunderground v.1.15,2013-01-16 21:50:00,
2013-01-16 16:55:00,34.6,27.5,29.93,SSW,201,6.0,8.0,75,0.00,,,0.00,Wunderground v.1.15,2013-01-16 21:55:00,
2013-01-16 17:00:00,34.5,27.4,29.94,SSW,205,7.0,7.0,75,0.00,,,0.00,Wunderground v.1.15,2013-01-16 22:00:00,
2013-01-16 17:05:00,34.5,27.1,29.94,SW,225,6.0,-999.0,74,0.00,,,0.00,Wunderground v.1.15,2013-01-16 22:05:00,
2013-01-16 17:10:00,34.4,26.6,29.94,SSW,197,6.0,8.0,73,0.00,,,0.00,Wunderground v.1.15,2013-01-16 22:10:00,
2013-01-16 17:15:00,34.4,27.0,29.94,SSW,197,6.0,8.0,74,0.00,,,0.00,Wunderground v.1.15,2013-01-16 22:15:00,
2013-01-16 17:20:00,34.2,26.8,29.94,SW,235,6.0,6.0,74,0.00,,,0.00,Wunderground v.1.15,2013-01-16 22:20:00,
2013-01-16 17:25:00,34.2,26.8,29.94,SSW,200,6.0,6.0,74,0.00,,,0.00,Wunderground v.1.15,2013-01-16 22:25:00,
2013-01-16 17:30:00,34.1,27.0,29.94,SSW,203,5.0,-999.0,75,0.00,,,0.00,Wunderground v.1.15,2013-01-16 22:30:00,
2013-01-16 17:35:00,33.9,26.8,29.94,SW,214,4.0,5.0,75,0.00,,,0.00,Wunderground v.1.15,2013-01-16 22:35:00,
2013-01-16 17:40:00,33.9,26.8,29.94,SW,225,4.0,-999.0,75,0.00,,,0.00,Wunderground v.1.15,2013-01-16 22:40:00,
2013-01-16 17:45:00,33.7,26.9,29.94,SSW,198,3.0,5.0,76,0.00,,,0.00,Wunderground v.1.15,2013-01-16 22:45:00,
2013-01-16 17:50:00,33.5,27.4,29.94,SSW,204,4.0,6.0,78,0.00,,,0.00,Wunderground v.1.15,2013-01-16 22:50:00,
2013-01-16 17:55:00,33.4,27.3,29.94,SSW,197,5.0,6.0,78,0.00,,,0.00,Wunderground v.1.15,2013-01-16 22:55:00,
2013-01-16 18:00:00,33.5,27.7,29.94,SSW,203,7.0,7.0,79,0.00,,,0.00,Wunderground v.1.15,2013-01-16 23:00:00,
2013-01-16 18:05:00,33.5,27.7,29.95,SSW,203,7.0,-999.0,79,0.00,,,0.00,Wunderground v.1.15,2013-01-16 23:05:00,
2013-01-16 18:10:00,33.4,27.6,29.95,SW,228,7.0,7.0,79,0.00,,,0.00,Wunderground v.1.15,2013-01-16 23:10:00,
2013-01-16 18:15:00,33.5,27.7,29.95,SW,225,6.0,-999.0,79,0.00,,,0.00,Wunderground v.1.15,2013-01-16 23:15:00,
2013-01-16 18:20:00,33.4,27.9,29.95,SSW,210,6.0,8.0,80,0.00,,,0.00,Wunderground v.1.15,2013-01-16 23:20:00,
2013-01-16 18:25:00,33.3,28.1,29.96,SSW,211,7.0,8.0,81,0.00,,,0.00,Wunderground v.1.15,2013-01-16 23:25:00,
2013-01-16 18:30:00,33.2,28.0,29.96,SSW,210,7.0,10.0,81,0.00,,,0.00,Wunderground v.1.15,2013-01-16 23:30:00,
2013-01-16 18:35:00,33.2,28.0,29.96,SSW,207,8.0,10.0,81,0.00,,,0.00,Wunderground v.1.15,2013-01-16 23:35:00,
2013-01-16 18:40:00,33.2,28.3,29.96,SSW,203,9.0,-999.0,82,0.00,,,0.00,Wunderground v.1.15,2013-01-16 23:40:00,
2013-01-16 18:45:00,33.2,28.3,29.97,SSW,207,9.0,12.0,82,0.00,,,0.00,Wunderground v.1.15,2013-01-16 23:45:00,
2013-01-16 18:50:00,33.2,28.3,29.97,SSW,203,8.0,-999.0,82,0.00,,,0.00,Wunderground v.1.15,2013-01-16 23:50:00,
2013-01-16 18:55:00,33.2,28.3,29.97,SW,233,8.0,9.0,82,0.00,,,0.00,Wunderground v.1.15,2013-01-16 23:55:00,
2013-01-16 19:00:00,33.1,28.2,29.97,SW,225,7.0,7.0,82,0.00,,,0.00,Wunderground v.1.15,2013-01-17 00:00:00,
2013-01-16 19:05:00,33.1,28.5,29.98,SW,225,6.0,-999.0,83,0.00,,,0.00,Wunderground v.1.15,2013-01-17 00:05:00,
2013-01-16 19:10:00,32.9,28.3,29.98,SSE,166,5.0,5.0,83,0.00,,,0.00,Wunderground v.1.15,2013-01-17 00:10:00,
2013-01-16 19:15:00,32.9,28.3,29.98,SW,221,6.0,6.0,83,0.00,,,0.00,Wunderground v.1.15,2013-01-17 00:15:00,
2013-01-16 19:20:00,32.9,28.3,29.98,SW,225,7.0,-999.0,83,0.00,,,0.00,Wunderground v.1.15,2013-01-17 00:20:00,
2013-01-16 19:25:00,32.8,28.5,29.99,SSW,213,6.0,8.0,84,0.00,,,0.00,Wunderground v.1.15,2013-01-17 00:25:00,
2013-01-16 19:30:00,32.8,28.5,29.98,SW,225,7.0,9.0,84,0.00,,,0.00,Wunderground v.1.15,2013-01-17 00:30:00,
2013-01-16 19:35:00,32.8,28.5,29.99,SSW,203,8.0,-999.0,84,0.00,,,0.00,Wunderground v.1.15,2013-01-17 00:35:00,
2013-01-16 19:40:00,32.8,28.5,29.99,SSW,205,8.0,8.0,84,0.00,,,0.00,Wunderground v.1.15,2013-01-17 00:40:00,
2013-01-16 19:45:00,32.7,28.4,29.99,SSW,210,7.0,8.0,84,0.00,,,0.00,Wunderground v.1.15,2013-01-17 00:45:00,
2013-01-16 20:00:00,32.7,28.4,29.99,SW,225,5.0,-999.0,84,0.00,,,0.00,Wunderground v.1.15,2013-01-17 01:00:00,
2013-01-16 20:10:00,32.3,28.3,29.99,SSW,194,5.0,5.0,85,0.00,,,0.00,Wunderground v.1.15,2013-01-17 01:10:00,
2013-01-16 20:15:00,32.3,28.3,29.98,SW,233,5.0,6.0,85,0.00,,,0.00,Wunderground v.1.15,2013-01-17 01:15:00,
2013-01-16 20:20:00,32.3,28.6,29.98,SSW,200,6.0,6.0,86,0.00,,,0.00,Wunderground v.1.15,2013-01-17 01:20:00,
2013-01-16 20:25:00,32.2,28.5,29.98,SW,218,6.0,8.0,86,0.00,,,0.00,Wunderground v.1.15,2013-01-17 01:25:00,
2013-01-16 20:30:00,32.1,28.7,29.98,SSW,210,6.0,6.0,87,0.00,,,0.00,Wunderground v.1.15,2013-01-17 01:30:00,
2013-01-16 20:35:00,32.0,28.6,29.97,SSW,210,5.0,6.0,87,0.00,,,0.00,Wunderground v.1.15,2013-01-17 01:35:00,
2013-01-16 20:40:00,31.9,28.5,29.98,SSW,201,5.0,5.0,87,0.00,,,0.00,Wunderground v.1.15,2013-01-17 01:40:00,
2013-01-16 20:55:00,31.8,28.7,29.98,SSW,210,7.0,7.0,88,0.00,,,0.00,Wunderground v.1.15,2013-01-17 01:55:00,
2013-01-16 21:00:00,31.8,28.9,29.98,SW,217,6.0,6.0,89,0.00,,,0.00,Wunderground v.1.15,2013-01-17 02:00:00,
2013-01-16 21:10:00,31.7,28.8,29.98,SSW,203,6.0,6.0,89,0.00,,,0.00,Wunderground v.1.15,2013-01-17 02:10:00,
2013-01-16 21:15:00,31.7,28.8,29.98,SW,221,6.0,6.0,89,0.00,,,0.00,Wunderground v.1.15,2013-01-17 02:15:00,
2013-01-16 21:25:00,31.6,29.0,29.97,SW,218,6.0,8.0,90,0.00,,,0.00,Wunderground v.1.15,2013-01-17 02:25:00,
2013-01-16 21:30:00,31.6,29.0,29.98,SSW,198,6.0,6.0,90,0.00,,,0.00,Wunderground v.1.15,2013-01-17 02:30:00,
2013-01-16 21:35:00,31.6,29.0,29.99,SSW,200,7.0,10.0,90,0.00,,,0.00,Wunderground v.1.15,2013-01-17 02:35:00,
2013-01-16 21:40:00,31.6,29.0,29.97,SSW,207,7.0,8.0,90,0.00,,,0.00,Wunderground v.1.15,2013-01-17 02:40:00,
2013-01-16 21:45:00,31.6,29.0,29.98,SSE,167,6.0,8.0,90,0.00,,,0.00,Wunderground v.1.15,2013-01-17 02:45:00,
2013-01-16 21:55:00,31.6,29.0,29.98,SSW,210,5.0,6.0,90,0.00,,,0.00,Wunderground v.1.15,2013-01-17 02:55:00,
2013-01-16 22:00:00,31.6,29.0,29.98,SSE,163,5.0,5.0,90,0.00,,,0.00,Wunderground v.1.15,2013-01-17 03:00:00,
2013-01-16 22:05:00,31.5,28.9,29.98,SW,235,5.0,5.0,90,0.00,,,0.00,Wunderground v.1.15,2013-01-17 03:05:00,
2013-01-16 22:15:00,31.6,28.7,29.98,WSW,245,3.0,4.0,89,0.00,,,0.00,Wunderground v.1.15,2013-01-17 03:15:00,
2013-01-16 22:20:00,31.6,28.7,29.98,South,188,5.0,11.0,89,0.00,,,0.00,Wunderground v.1.15,2013-01-17 03:20:00,
2013-01-16 22:25:00,31.7,28.6,29.99,SW,225,6.0,11.0,88,0.00,,,0.00,Wunderground v.1.15,2013-01-17 03:25:00,
2013-01-16 22:35:00,31.7,28.6,29.99,SSW,205,4.0,5.0,88,0.00,,,0.00,Wunderground v.1.15,2013-01-17 03:35:00,
2013-01-16 22:40:00,31.6,28.5,29.99,SSW,210,5.0,5.0,88,0.00,,,0.00,Wunderground v.1.15,2013-01-17 03:40:00,
2013-01-16 22:45:00,31.7,28.6,29.99,SSE,158,6.0,7.0,88,0.00,,,0.00,Wunderground v.1.15,2013-01-17 03:45:00,
2013-01-16 22:50:00,31.7,28.6,30.00,SSW,207,6.0,6.0,88,0.00,,,0.00,Wunderground v.1.15,2013-01-17 03:50:00,
2013-01-16 22:55:00,31.7,28.6,30.00,SW,231,6.0,7.0,88,0.00,,,0.00,Wunderground v.1.15,2013-01-17 03:55:00,
2013-01-16 23:00:00,31.7,28.3,30.00,SSW,207,7.0,7.0,87,0.00,,,0.00,Wunderground v.1.15,2013-01-17 04:00:00,
2013-01-16 23:10:00,31.7,28.3,30.00,SW,221,7.0,10.0,87,0.00,,,0.00,Wunderground v.1.15,2013-01-17 04:10:00,
2013-01-16 23:15:00,31.7,28.3,30.00,SSW,200,6.0,10.0,87,0.00,,,0.00,Wunderground v.1.15,2013-01-17 04:15:00,
2013-01-16 23:20:00,31.7,28.3,30.00,SW,228,5.0,5.0,87,0.00,,,0.00,Wunderground v.1.15,2013-01-17 04:20:00,
2013-01-16 23:30:00,31.6,28.2,30.01,SW,230,4.0,4.0,87,0.00,,,0.00,Wunderground v.1.15,2013-01-17 04:30:00,
2013-01-16 23:35:00,31.6,28.2,30.00,SW,222,5.0,7.0,87,0.00,,,0.00,Wunderground v.1.15,2013-01-17 04:35:00,
2013-01-16 23:45:00,31.7,28.3,30.00,SW,215,6.0,6.0,87,0.00,,,0.00,Wunderground v.1.15,2013-01-17 04:45:00,
2013-01-16 23:50:00,31.7,28.3,30.00,SSW,204,6.0,6.0,87,0.00,,,0.00,Wunderground v.1.15,2013-01-17 04:50:00,
2013-01-16 23:55:00,31.7,28.3,30.01,SSW,203,6.0,7.0,87,0.00,,,0.00,Wunderground v.1.15,2013-01-17 04:55:00,